map of LGC home
LGC - Airport
Location
City:  Lagrange, Georgia, United States
Name:Lagrange-Callaway Airport
ICAO:KLGC
IATA:LGC
FAA LID:LGC

Details
Type:Airport (Airfield)
Use:Public/Civil
Latitude:3300'32"N (33.008861)
Longitude:8504'21"W (-85.072610)
Datum:WGS 1984
Elevation:693 ft (211 m)
Variation:4.60W (WMM2015v2 magnetic declination)
-0.06 annual change
Runways:2
Longest:5599 × 150 ft (1707 × 45.5 m), paved

Time
Time Zone:UTC-5 (DST-4)
Local Time:

Weather
METAR:KLGC 041415Z AUTO 00000KT 7SM OVC003 09/08 A3011 RMK AO2 T00850082

Related Locations
Nearby:
Farthest:MQZ: 11279 mi / 18152 km
Margaret River [Margaret River Airport], WA, AU

Find:

   beyond  
but within

Other Information
Maps:
NOTAMs:
Links:
Sources:

  
  • flag of United States
  • flag of Georgia
  

Sectional Chart

Flight Planning
at skyvector.com

Satellite Image

Google Maps Satellite view

 

Copyright © 2004-2019 Karl L. Swartz. All rights reserved.
The Great Circle Mapper name and logo are trademarks of the Great Circle Mapper.
All other trademarks mentioned herein belong to their respective owners.
Please see credits for attibutions and further copyright information.

  Follow gcmap on Facebook Follow gcmap on Twitter GCmap on LinkedIn

hCard Microformat

Geo Microformat